Location: Clanezzo
(45.7500°N, 9.6000°E)
Time: 10:44:26
(UTC+00:00)

ESTCUBE 1 - Pass Details

Date: 04 July 2022
Orbit: 645 x 657 km, 97.9° (Epoch: 15 August)

Event Time Altitude Azimuth Distance (km) Brightness Sun altitude
Exits shadow 21:18:49 27° 157° (SSE) 1,242 ? -15.6°
Maximum altitude 21:21:13 77° 75° (ENE) 669 ? -15.8°
Drops below altitude 10° 21:25:43 10° 350° (N) 2,062 ? -16.2°
Sets 21:27:56 0° 349° (NNW) 2,979 ? -16.4°
